Regional Weather Roundup
Issued by NWS

Home | Current Version | Previous Version | Graphics & Text | Print | Product List | Glossary On
Versions: 1 2 3 4 5 6 7 8 9 10 11 12 13 14 15 16 17 18 19 20 21 22 23 24 25 26 27 28
000
ASUS45 KTFX 220310
RWRMT
MONTANA REGIONAL WEATHER ROUNDUP
NATIONAL WEATHER SERVICE GREAT FALLS MT
800 PM MST SAT JAN 21 2017

NOTE: "FAIR" INDICATES FEW OR NO CLOUDS BELOW 12000 FEET WITH NO
SIGNIFICANT WEATHER AND/OR OBSTRUCTIONS TO VISIBILITY.

MTZ001>007-043-220400-
WEST OF THE DIVIDE

CITY           SKY/WX    TMP DP  RH WIND       PRES   REMARKS
KALISPELL      CLOUDY    25  24  96 CALM      29.70R
MISSOULA       CLOUDY    24  23  96 CALM      29.71R
BUTTE          CLOUDY    14   9  80 CALM      29.66R
MULLAN PASS    FOG       26  23  88 S6        29.59R VSB 1/2 WCI  19
ANACONDA         N/A     23  18  80 CALM      29.67R
DEER LODGE       N/A     21  18  86 CALM      29.70R
EUREKA           N/A     27  25  93 CALM      29.72R
HAMILTON         N/A     25  21  86 CALM        N/A
PLAINS           N/A     25  21  84 CALM      29.73
RONAN            N/A     24  21  88 CALM      29.75R
$$

MTZ008-052>055-220400-
SOUTHWEST MONTANA

CITY           SKY/WX    TMP DP  RH WIND       PRES   REMARKS
BOZEMAN        CLOUDY    22  16  78 CALM      29.67R
DILLON         CLOUDY    27  14  58 S10       29.66R WCI  17
W YELLOWSTONE  CLOUDY    23  23 100 SW15      29.68R WCI  10
ENNIS          CLOUDY    30  23  74 S12       29.70R WCI  21
$$

MTZ009-010-012-014-046-048-049-054-220400-
EAST SLOPES AND CENTRAL MONTANA

CITY           SKY/WX    TMP DP  RH WIND       PRES   REMARKS
CUT BANK       PTCLDY    25  20  81 CALM      29.62R
GREAT FALLS    CLEAR     21  17  84 SW8       29.63R WCI  11
MALMSTROM AFB  CLEAR     25  21  85 SW5       29.64R
HELENA         CLOUDY    14  10  84 SE3       29.69R
AUGUSTA        CLOUDY    24  21  87 CALM      29.62R
BOWMANS CRNR     N/A     24  17  74 S8        29.61R WCI  15
CHOTEAU          N/A     28  23  80 W5        29.65R
CONRAD           N/A     18  16  92 W1        29.68R
POWER            N/A     17  17 100 W7        29.62R WCI   8
RAYNESFORD       N/A     23  17  80 CALM      29.63R
ULM              N/A     21  17  84 MISG      29.64R
$$

MTZ011-013-016-021-045-047-050-051-220400-
NORTH CENTRAL MONTANA

CITY           SKY/WX    TMP DP  RH WIND       PRES   REMARKS
HAVRE          CLEAR     23  22  96 SW13      29.63R WCI  11
LEWISTOWN      CLOUDY    24  18  77 SW9       29.61R WCI  14
CHINOOK          N/A     25  23  93 W7        29.62R WCI  17
DENTON           N/A     30  21  69 S8        29.59R WCI  22
FORT BENTON      N/A     28  23  80 MISG      29.65R
GEYSER           N/A     25  20  80 SW12      29.60R WCI  15
GRASS RANGE    MOCLDY    29  23  77 W15       29.58R WCI  18
JUDITH GAP       N/A     22  16  77 W6        29.60R WCI  15
ROY              N/A     27  21  79 MISG      29.59R
STANFORD         N/A     23  18  83 E3        29.60R
WINIFRED         N/A     27  22  80 MISG      29.60R
$$

MTZ017>020-022>027-061-062-220400-
NORTHEAST MONTANA

CITY           SKY/WX    TMP DP  RH WIND       PRES   REMARKS
GLASGOW        CLOUDY    20  18  92 W7        29.56R WCI  11
JORDAN           N/A     25  22  88 NW9       29.58R WCI  15
SIDNEY         CLEAR     18  16  92 W5        29.58R
WOLF POINT     CLOUDY    14  11  87 CALM      29.59R
PLENTYWOOD       N/A     30  28  93 NW13      29.53R WCI  20
POPLAR           N/A     18  16  93 S3        29.59R
SCOBEY           N/A     29  24  81 W8        29.56  WCI  21
$$

MTZ028>42-056>058-220400-
SOUTHCENTRAL AND SOUTHEAST MONTANA

CITY           SKY/WX    TMP DP  RH WIND       PRES   REMARKS
BAKER          CLEAR     20  17  88 MISG      29.58R
BILLINGS       MOCLDY    31  20  63 SW18      29.62R WCI  19
LIVINGSTON     CLOUDY    29  18  63 W7        29.63R WCI  22
MILES CITY     CLEAR     17  14  88 SW5       29.60R
BIG TIMBER     PTCLDY    32  19  59 SW17      29.64R WCI  21
EKALAKA          N/A     25  18  74 CALM      29.59R
FORSYTH          N/A     21  21 100 SW5       29.61R
HARLOWTON        N/A     28  18  67 W16       29.61R WCI  16
LAUREL           N/A     29  18  63 SW9       29.63R WCI  21
$$

REGIONAL REPORTS...DAKOTAS

CITY           SKY/WX    TMP DP  RH WIND       PRES   REMARKS
WILLISTON      CLOUDY    30  27  88 NW7       29.55R WCI  23
MINOT          CLOUDY    27  24  89 SW6       29.52R WCI  20
DICKINSON      CLEAR     21  16  81 W12       29.52R WCI   9
BEACH            N/A     23  23 100 W16       29.58R WCI  10
CROSBY         FOG       28  28 100 W3        29.54R VSB 3/4
WATFORD CITY   MOCLDY    19  18  93 SW6       29.56R WCI  11
BISMARCK       PTCLDY    25  23  92 CALM      29.55R
GRAND FORKS    CLOUDY    35  32  88 CALM      29.54R
FARGO          CLOUDY    36  34  92 CALM      29.53R FOG
BUFFALO SD       N/A     26  23  88 W7        29.51R WCI  18
RAPID CITY     CLEAR     24  21  88 NW7       29.58R WCI  16
$$

REGIONAL REPORTS...WYOMING/IDAHO/WASHINGTON

CITY           SKY/WX    TMP DP  RH WIND       PRES   REMARKS
GILLETTE       CLOUDY    28  26  92 SW6       29.59R WCI  22
SHERIDAN       CLOUDY    22  16  78 VRB6      29.61R WCI  14
BUFFALO WY     CLOUDY    26  17  68 SW6       29.59R WCI  19
CODY           CLOUDY    23  17  78 CALM      29.63R
YELLOWSTONE LA   N/A     20  16  84 W6        29.68R WCI  12
IDAHO FALLS    CLOUDY    29  27  92 S10       29.76R WCI  20
SALMON         CLOUDY    16  12  86 CALM      29.74R
BOISE          CLOUDY    36  31  82 E13       29.77R WCI  27
SPOKANE        MOCLDY    36  31  82 E12       29.62R WCI  28
$$

REGIONAL REPORTS...ALBERTA

CITY           SKY/WX    TMP DP  RH WIND       PRES   REMARKS
EDMONTON       CLOUDY    21  16  79 N9        29.77R WCI  11
CALGARY        MOCLDY    25  19  80 N8        29.66R WCI  16
LETHBRIDGE     PTCLDY    23  21  93 W7        29.65R WCI  15
MEDICINE HAT   FRZ DRZL  28  27  93 W5        29.65R FOG
WATERTON GATE    N/A     27  19  74 NE1         N/A
CARDSTON         N/A     25  18  74 W6          N/A  WCI  18
MILK RIVER       N/A     23  19  86 NW9         N/A  WCI  13
$$

REGIONAL REPORTS...SASKATCHEWAN

CITY           SKY/WX    TMP DP  RH WIND       PRES   REMARKS
SWIFT CURRENT  FRZ RAIN  27  27 100 NW15      29.55R VSB 3/8 WCI  15
REGINA         FLURRIES  27  25  93 W9        29.53R WCI  17
SASKATOON      FLURRIES  28  27  93 N8        29.57R WCI  20
CYPRESS HILLS    N/A     21  19  93 NW8         N/A  WCI  12
VAL MARIE        N/A     28  25  86 N13         N/A  WCI  18
ROCKGLEN         N/A     27  25  93 NW10        N/A  WCI  17
ASSINIBOIA       N/A     21  19  93 N10         N/A  WCI  10
$$




USA.gov is the U.S. government's official web portal to all federal, state and local government web resources and services.